Location: Peterborough
(44.3091°N, 78.3197°W)
Time: 00:46:25
(UTC-04:00)

Vanguard 2 Rocket - Pass Details

Date: 26 March 2023
Orbit: 554 x 3314 km, 32.9° (Epoch: 02 June)

Event Time Altitude Azimuth Distance (km) Brightness Sun altitude
Rises 03:04:13 0° 270° (W) 5,718 - -38.0°
Reaches altitude 10° 03:08:56 10° 256° (WSW) 5,139 - -37.5°
Maximum altitude 03:19:25 22° 214° (SW) 4,924 - -36.3°
Drops below altitude 10° 03:32:04 10° 174° (S) 6,245 - -34.9°
Exits shadow 03:34:20 - 169° (S) 6,572 10.9 -34.6°
Sets 03:38:56 0° 161° (SSE) 7,266 11.3 -34.0°
